Location: Prague
(50.0830°N, 14.4670°E)
Time: 17:40:34
(UTC+01:00)

DELFI C3 - Visible Passes

Search period start: 03 December 2021 00:00
Search period end: 13 December 2021 00:00
Orbit: 529 x 543 km, 97.4° (Epoch: 03 December)

Date Brightness Start Highest point End Pass type
(mag) Time Alt. Az. Time Alt. Az. Time Alt. Az.
08 Dec ? 07:06:10 10° NE 07:09:08 20° E 07:12:04 10° SE visible
09 Dec ? 06:57:54 10° NE 07:00:28 17° E 07:03:02 10° SE visible
10 Dec ? 06:49:45 10° ENE 06:51:48 14° E 06:53:51 10° ESE visible
11 Dec ? 06:41:53 10° ENE 06:43:07 11° E 06:44:21 10° ESE visible
